Time,TemperatureF,DewpointF,PressureIn,WindDirection,WindDirectionDegrees,WindSpeedMPH,WindSpeedGustMPH,Humidity,HourlyPrecipIn,Conditions,Clouds,dailyrainin,SoftwareType,DateUTC
2013-08-07 00:03:00,58.0,55.0,30.03,WSW,239,6.0,10.0,90,0.00,,,0.00,weatherlink.com 1.10,2013-08-07 07:03:00,
2013-08-07 00:18:00,57.9,55.0,30.03,WSW,242,4.0,10.0,90,0.00,,,0.00,weatherlink.com 1.10,2013-08-07 07:18:00,
2013-08-07 00:33:00,57.9,55.0,30.03,WSW,257,6.0,14.0,91,0.00,,,0.00,weatherlink.com 1.10,2013-08-07 07:33:00,
2013-08-07 00:48:00,57.9,56.0,30.03,WSW,243,4.0,10.0,92,0.00,,,0.00,weatherlink.com 1.10,2013-08-07 07:48:00,
2013-08-07 01:03:00,57.4,55.0,30.03,West,277,5.0,11.0,93,0.00,,,0.00,weatherlink.com 1.10,2013-08-07 08:03:00,
2013-08-07 01:18:00,56.8,55.0,30.04,SSW,199,6.0,10.0,93,0.00,,,0.00,weatherlink.com 1.10,2013-08-07 08:18:00,
2013-08-07 01:33:00,56.7,55.0,30.03,SW,229,5.0,9.0,94,0.00,,,0.00,weatherlink.com 1.10,2013-08-07 08:33:00,
2013-08-07 01:48:00,56.7,55.0,30.03,WSW,254,4.0,11.0,94,0.00,,,0.00,weatherlink.com 1.10,2013-08-07 08:48:00,
2013-08-07 02:03:00,56.5,55.0,30.03,SW,226,6.0,11.0,94,0.00,,,0.00,weatherlink.com 1.10,2013-08-07 09:03:00,
2013-08-07 02:18:00,56.2,55.0,30.03,South,173,3.0,10.0,94,0.00,,,0.00,weatherlink.com 1.10,2013-08-07 09:18:00,
2013-08-07 02:34:00,56.1,54.0,30.03,WSW,239,2.0,10.0,94,0.00,,,0.00,weatherlink.com 1.10,2013-08-07 09:34:00,
2013-08-07 02:49:00,56.1,55.0,30.04,SSW,203,4.0,10.0,95,0.00,,,0.00,weatherlink.com 1.10,2013-08-07 09:49:00,
2013-08-07 03:04:00,56.0,55.0,30.04,WSW,256,7.0,8.0,95,0.00,,,0.00,weatherlink.com 1.10,2013-08-07 10:04:00,
2013-08-07 03:19:00,55.7,54.0,30.04,SSW,210,4.0,11.0,95,0.00,,,0.00,weatherlink.com 1.10,2013-08-07 10:19:00,
2013-08-07 03:34:00,55.5,54.0,30.04,SW,218,6.0,11.0,95,0.00,,,0.00,weatherlink.com 1.10,2013-08-07 10:34:00,
2013-08-07 03:49:00,55.5,54.0,30.04,SW,226,6.0,9.0,94,0.00,,,0.00,weatherlink.com 1.10,2013-08-07 10:49:00,
2013-08-07 04:04:00,55.6,54.0,30.03,SSW,200,3.0,10.0,93,0.00,,,0.00,weatherlink.com 1.10,2013-08-07 11:04:00,
2013-08-07 04:19:00,55.9,54.0,30.03,West,259,8.0,13.0,93,0.00,,,0.00,weatherlink.com 1.10,2013-08-07 11:19:00,
2013-08-07 04:34:00,56.1,54.0,30.03,SW,232,2.0,9.0,92,0.00,,,0.00,weatherlink.com 1.10,2013-08-07 11:34:00,
2013-08-07 04:49:00,56.3,54.0,30.03,SW,219,3.0,9.0,93,0.00,,,0.00,weatherlink.com 1.10,2013-08-07 11:49:00,
2013-08-07 05:04:00,55.9,54.0,30.04,SW,225,4.0,9.0,94,0.00,,,0.00,weatherlink.com 1.10,2013-08-07 12:04:00,
2013-08-07 05:34:00,55.9,55.0,30.04,WSW,240,6.0,8.0,95,0.00,,,0.00,weatherlink.com 1.10,2013-08-07 12:34:00,
2013-08-07 05:49:00,55.9,55.0,30.04,SW,220,4.0,9.0,95,0.00,,,0.00,weatherlink.com 1.10,2013-08-07 12:49:00,
2013-08-07 06:04:00,55.9,55.0,30.03,WSW,245,4.0,5.0,96,0.00,,,0.00,weatherlink.com 1.10,2013-08-07 13:04:00,
2013-08-07 06:19:00,55.9,55.0,30.04,SW,224,1.0,5.0,96,0.00,,,0.00,weatherlink.com 1.10,2013-08-07 13:19:00,
2013-08-07 06:34:00,55.7,55.0,30.04,West,274,0.0,6.0,96,0.00,,,0.00,weatherlink.com 1.10,2013-08-07 13:34:00,
2013-08-07 06:49:00,55.5,54.0,30.04,SW,232,1.0,6.0,96,0.00,,,0.00,weatherlink.com 1.10,2013-08-07 13:49:00,
2013-08-07 07:04:00,55.7,55.0,30.04,SSW,207,2.0,7.0,96,0.00,,,0.00,weatherlink.com 1.10,2013-08-07 14:04:00,
2013-08-07 07:19:00,55.9,55.0,30.04,South,191,2.0,9.0,95,0.00,,,0.00,weatherlink.com 1.10,2013-08-07 14:19:00,
2013-08-07 07:34:00,56.3,55.0,30.04,SSE,155,3.0,10.0,95,0.00,,,0.00,weatherlink.com 1.10,2013-08-07 14:34:00,
2013-08-07 07:49:00,56.6,55.0,30.04,SSW,198,7.0,11.0,95,0.00,,,0.00,weatherlink.com 1.10,2013-08-07 14:49:00,
2013-08-07 08:04:00,56.4,55.0,30.05,SSW,211,6.0,9.0,95,0.00,,,0.00,weatherlink.com 1.10,2013-08-07 15:04:00,
2013-08-07 08:19:00,57.0,55.0,30.05,SSE,150,4.0,8.0,94,0.00,,,0.00,weatherlink.com 1.10,2013-08-07 15:19:00,
2013-08-07 08:34:00,57.3,55.0,30.06,South,186,4.0,9.0,93,0.00,,,0.00,weatherlink.com 1.10,2013-08-07 15:34:00,
2013-08-07 08:49:00,57.6,55.0,30.06,WSW,242,5.0,11.0,90,0.00,,,0.00,weatherlink.com 1.10,2013-08-07 15:49:00,
2013-08-07 09:04:00,58.0,55.0,30.07,SW,219,5.0,11.0,89,0.00,,,0.00,weatherlink.com 1.10,2013-08-07 16:04:00,
2013-08-07 09:19:00,58.3,55.0,30.07,SW,223,10.0,12.0,88,0.00,,,0.00,weatherlink.com 1.10,2013-08-07 16:19:00,
2013-08-07 09:34:00,58.6,55.0,30.07,WSW,238,7.0,10.0,87,0.00,,,0.00,weatherlink.com 1.10,2013-08-07 16:34:00,
2013-08-07 09:49:00,58.9,55.0,30.07,WSW,240,7.0,11.0,86,0.00,,,0.00,weatherlink.com 1.10,2013-08-07 16:49:00,
2013-08-07 10:04:00,59.7,56.0,30.08,WSW,252,6.0,8.0,86,0.00,,,0.00,weatherlink.com 1.10,2013-08-07 17:04:00,
2013-08-07 10:19:00,59.4,55.0,30.08,WSW,256,7.0,13.0,86,0.00,,,0.00,weatherlink.com 1.10,2013-08-07 17:19:00,
2013-08-07 10:34:00,59.6,56.0,30.09,WSW,248,3.0,10.0,86,0.00,,,0.00,weatherlink.com 1.10,2013-08-07 17:34:00,
2013-08-07 10:49:00,59.7,56.0,30.09,SSW,200,5.0,13.0,87,0.00,,,0.00,weatherlink.com 1.10,2013-08-07 17:49:00,
2013-08-07 11:04:00,59.5,56.0,30.09,SW,214,7.0,13.0,87,0.00,,,0.00,weatherlink.com 1.10,2013-08-07 18:04:00,
2013-08-07 11:19:00,60.3,56.0,30.09,SW,234,7.0,13.0,85,0.00,,,0.00,weatherlink.com 1.10,2013-08-07 18:19:00,
2013-08-07 11:34:00,60.9,56.0,30.09,SW,218,10.0,15.0,84,0.00,,,0.00,weatherlink.com 1.10,2013-08-07 18:34:00,
2013-08-07 11:49:00,61.3,56.0,30.09,SSW,205,7.0,14.0,82,0.00,,,0.00,weatherlink.com 1.10,2013-08-07 18:49:00,
2013-08-07 12:04:00,62.7,57.0,30.09,West,262,10.0,14.0,82,0.00,,,0.00,weatherlink.com 1.10,2013-08-07 19:04:00,
2013-08-07 12:19:00,61.9,56.0,30.09,WSW,240,11.0,14.0,82,0.00,,,0.00,weatherlink.com 1.10,2013-08-07 19:19:00,
2013-08-07 12:34:00,62.2,56.0,30.09,SSW,197,5.0,12.0,81,0.00,,,0.00,weatherlink.com 1.10,2013-08-07 19:34:00,
2013-08-07 12:50:00,62.0,56.0,30.09,SW,229,5.0,13.0,81,0.00,,,0.00,weatherlink.com 1.10,2013-08-07 19:50:00,
2013-08-07 13:05:00,61.8,57.0,30.09,SSW,200,9.0,13.0,83,0.00,,,0.00,weatherlink.com 1.10,2013-08-07 20:05:00,
2013-08-07 13:20:00,62.1,57.0,30.08,WSW,254,3.0,15.0,82,0.00,,,0.00,weatherlink.com 1.10,2013-08-07 20:20:00,
2013-08-07 13:35:00,62.2,56.0,30.09,South,190,7.0,13.0,80,0.00,,,0.00,weatherlink.com 1.10,2013-08-07 20:35:00,
2013-08-07 13:49:00,62.8,56.0,30.08,South,190,5.0,13.0,79,0.00,,,0.00,weatherlink.com 1.10,2013-08-07 20:49:00,
2013-08-07 14:05:00,62.8,57.0,30.08,SSW,193,9.0,12.0,80,0.00,,,0.00,weatherlink.com 1.10,2013-08-07 21:05:00,
2013-08-07 14:20:00,62.8,57.0,30.08,WSW,252,6.0,12.0,80,0.00,,,0.00,weatherlink.com 1.10,2013-08-07 21:20:00,
2013-08-07 14:35:00,63.2,57.0,30.08,SW,221,7.0,12.0,80,0.00,,,0.00,weatherlink.com 1.10,2013-08-07 21:35:00,
2013-08-07 14:50:00,63.2,57.0,30.07,SW,222,5.0,15.0,79,0.00,,,0.00,weatherlink.com 1.10,2013-08-07 21:50:00,
2013-08-07 15:05:00,63.6,57.0,30.07,WSW,245,12.0,15.0,80,0.00,,,0.00,weatherlink.com 1.10,2013-08-07 22:05:00,
2013-08-07 15:20:00,63.8,57.0,30.07,WSW,239,7.0,14.0,78,0.00,,,0.00,weatherlink.com 1.10,2013-08-07 22:20:00,
2013-08-07 15:35:00,63.9,57.0,30.07,SE,132,6.0,13.0,79,0.00,,,0.00,weatherlink.com 1.10,2013-08-07 22:35:00,
2013-08-07 15:50:00,63.8,57.0,30.06,SSW,198,8.0,14.0,79,0.00,,,0.00,weatherlink.com 1.10,2013-08-07 22:50:00,
2013-08-07 16:05:00,63.6,57.0,30.06,WSW,254,5.0,14.0,80,0.00,,,0.00,weatherlink.com 1.10,2013-08-07 23:05:00,
2013-08-07 16:20:00,64.4,58.0,30.05,WNW,290,5.0,11.0,79,0.00,,,0.00,weatherlink.com 1.10,2013-08-07 23:20:00,
2013-08-07 16:35:00,64.0,58.0,30.05,SSW,207,9.0,13.0,80,0.00,,,0.00,weatherlink.com 1.10,2013-08-07 23:35:00,
2013-08-07 16:50:00,63.8,58.0,30.05,SSE,167,4.0,12.0,80,0.00,,,0.00,weatherlink.com 1.10,2013-08-07 23:50:00,
2013-08-07 17:04:00,62.5,57.0,30.05,WSW,249,6.0,13.0,83,0.00,,,0.00,weatherlink.com 1.10,2013-08-08 00:04:00,
2013-08-07 17:20:00,61.7,57.0,30.05,West,271,6.0,13.0,85,0.00,,,0.00,weatherlink.com 1.10,2013-08-08 00:20:00,
2013-08-07 17:35:00,62.1,57.0,30.05,SSW,204,7.0,13.0,83,0.00,,,0.00,weatherlink.com 1.10,2013-08-08 00:35:00,
2013-08-07 17:50:00,61.6,57.0,30.04,South,180,5.0,14.0,84,0.00,,,0.00,weatherlink.com 1.10,2013-08-08 00:50:00,
2013-08-07 18:05:00,61.7,57.0,30.04,WSW,245,6.0,13.0,84,0.00,,,0.00,weatherlink.com 1.10,2013-08-08 01:05:00,
2013-08-07 18:20:00,61.2,57.0,30.04,SSE,167,6.0,14.0,85,0.00,,,0.00,weatherlink.com 1.10,2013-08-08 01:20:00,
2013-08-07 18:35:00,60.6,56.0,30.04,WNW,295,4.0,12.0,86,0.00,,,0.00,weatherlink.com 1.10,2013-08-08 01:35:00,
2013-08-07 18:50:00,60.3,57.0,30.03,SSE,158,6.0,12.0,87,0.00,,,0.00,weatherlink.com 1.10,2013-08-08 01:50:00,
2013-08-07 19:05:00,60.2,57.0,30.03,SW,221,2.0,10.0,88,0.00,,,0.00,weatherlink.com 1.10,2013-08-08 02:05:00,
2013-08-07 19:20:00,60.1,57.0,30.03,West,277,6.0,11.0,88,0.00,,,0.00,weatherlink.com 1.10,2013-08-08 02:20:00,
2013-08-07 19:35:00,60.1,57.0,30.03,SSW,212,4.0,9.0,88,0.00,,,0.00,weatherlink.com 1.10,2013-08-08 02:35:00,
2013-08-07 19:50:00,60.0,57.0,30.03,WSW,240,2.0,9.0,88,0.00,,,0.00,weatherlink.com 1.10,2013-08-08 02:50:00,
2013-08-07 20:05:00,60.1,57.0,30.03,WSW,249,6.0,9.0,88,0.00,,,0.00,weatherlink.com 1.10,2013-08-08 03:05:00,
2013-08-07 20:20:00,59.9,57.0,30.03,WSW,243,8.0,8.0,89,0.00,,,0.00,weatherlink.com 1.10,2013-08-08 03:20:00,
2013-08-07 20:35:00,59.7,57.0,30.03,SW,215,3.0,9.0,89,0.00,,,0.00,weatherlink.com 1.10,2013-08-08 03:35:00,
2013-08-07 20:50:00,59.4,57.0,30.03,East,95,3.0,7.0,90,0.00,,,0.00,weatherlink.com 1.10,2013-08-08 03:50:00,
2013-08-07 21:05:00,59.3,57.0,30.03,WSW,252,3.0,9.0,91,0.00,,,0.00,weatherlink.com 1.10,2013-08-08 04:05:00,
2013-08-07 21:20:00,59.1,57.0,30.03,SW,218,9.0,10.0,91,0.00,,,0.00,weatherlink.com 1.10,2013-08-08 04:20:00,
2013-08-07 21:35:00,59.0,56.0,30.03,SSW,206,5.0,9.0,91,0.00,,,0.00,weatherlink.com 1.10,2013-08-08 04:35:00,
2013-08-07 21:50:00,59.0,57.0,30.03,SW,235,9.0,9.0,92,0.00,,,0.00,weatherlink.com 1.10,2013-08-08 04:50:00,
2013-08-07 22:05:00,58.8,57.0,30.03,SSW,212,4.0,10.0,92,0.00,,,0.00,weatherlink.com 1.10,2013-08-08 05:05:00,
2013-08-07 22:20:00,58.7,56.0,30.03,WSW,238,2.0,8.0,92,0.00,,,0.00,weatherlink.com 1.10,2013-08-08 05:20:00,
2013-08-07 22:35:00,58.8,57.0,30.03,SSW,198,3.0,8.0,92,0.00,,,0.00,weatherlink.com 1.10,2013-08-08 05:35:00,
2013-08-07 22:50:00,59.0,57.0,30.03,SW,219,2.0,8.0,92,0.00,,,0.00,weatherlink.com 1.10,2013-08-08 05:50:00,
2013-08-07 23:05:00,58.7,56.0,30.02,SSW,203,6.0,8.0,92,0.00,,,0.00,weatherlink.com 1.10,2013-08-08 06:05:00,
2013-08-07 23:20:00,58.8,57.0,30.02,South,172,2.0,7.0,92,0.00,,,0.00,weatherlink.com 1.10,2013-08-08 06:20:00,
2013-08-07 23:35:00,58.6,57.0,30.02,WSW,245,4.0,10.0,93,0.00,,,0.00,weatherlink.com 1.10,2013-08-08 06:35:00,
2013-08-07 23:50:00,58.5,57.0,30.03,SW,215,5.0,9.0,93,0.00,,,0.00,weatherlink.com 1.10,2013-08-08 06:50:00,